Year,Month,Day,Hour,Minute,Value (Times are PST for temperature in C)
2015,06,12,00,00,12.90
2015,06,12,00,01,12.90
2015,06,12,00,02,12.90
2015,06,12,00,03,12.90
2015,06,12,00,04,12.90
2015,06,12,00,05,12.90
2015,06,12,00,06,12.90
2015,06,12,00,07,12.90
2015,06,12,00,08,12.90
2015,06,12,00,09,12.90
2015,06,12,00,10,12.90
2015,06,12,00,11,12.80
2015,06,12,00,12,12.80
2015,06,12,00,13,12.90
2015,06,12,00,14,12.90
2015,06,12,00,15,12.90
2015,06,12,00,16,12.90
2015,06,12,00,17,12.90
2015,06,12,00,18,12.90
2015,06,12,00,19,12.90
2015,06,12,00,20,12.90
2015,06,12,00,21,12.90
2015,06,12,00,22,12.90
2015,06,12,00,23,12.90
2015,06,12,00,24,12.90
2015,06,12,00,25,12.90
2015,06,12,00,26,12.90
2015,06,12,00,27,12.90
2015,06,12,00,28,12.90
2015,06,12,00,29,12.80
2015,06,12,00,30,12.90
2015,06,12,00,31,12.90
2015,06,12,00,32,12.90
2015,06,12,00,33,12.90
2015,06,12,00,34,12.90
2015,06,12,00,35,12.90
2015,06,12,00,36,12.90
2015,06,12,00,37,12.90
2015,06,12,00,38,12.90
2015,06,12,00,39,12.90
2015,06,12,00,40,12.90
2015,06,12,00,41,12.90
2015,06,12,00,42,12.90
2015,06,12,00,43,12.90
2015,06,12,00,44,12.80
2015,06,12,00,45,12.80
2015,06,12,00,46,12.80
2015,06,12,00,47,12.80
2015,06,12,00,48,12.80
2015,06,12,00,49,12.80
2015,06,12,00,50,12.80
2015,06,12,00,51,12.80
2015,06,12,00,52,12.80
2015,06,12,00,53,12.80
2015,06,12,00,54,12.80
2015,06,12,00,55,12.80
2015,06,12,00,56,12.80
2015,06,12,00,57,12.80
2015,06,12,00,58,12.70
2015,06,12,00,59,12.70
2015,06,12,01,00,12.70
2015,06,12,01,01,12.70
2015,06,12,01,02,12.70
2015,06,12,01,03,12.70
2015,06,12,01,04,12.70
2015,06,12,01,05,12.70
2015,06,12,01,06,12.70
2015,06,12,01,07,12.70
2015,06,12,01,08,12.70
2015,06,12,01,09,12.70
2015,06,12,01,10,12.70
2015,06,12,01,11,12.60
2015,06,12,01,12,12.60
2015,06,12,01,13,12.60
2015,06,12,01,14,12.60
2015,06,12,01,15,12.60
2015,06,12,01,16,12.50
2015,06,12,01,17,12.50
2015,06,12,01,18,12.50
2015,06,12,01,19,12.50
2015,06,12,01,20,12.40
2015,06,12,01,21,12.40
2015,06,12,01,22,12.40
2015,06,12,01,23,12.40
2015,06,12,01,24,12.40
2015,06,12,01,25,12.40
2015,06,12,01,26,12.30
2015,06,12,01,27,12.30
2015,06,12,01,28,12.30
2015,06,12,01,29,12.30
2015,06,12,01,30,12.30
2015,06,12,01,31,12.30
2015,06,12,01,32,12.20
2015,06,12,01,33,12.20
2015,06,12,01,34,12.20
2015,06,12,01,35,12.20
2015,06,12,01,36,12.20
2015,06,12,01,37,12.10
2015,06,12,01,38,12.10
2015,06,12,01,39,12.10
2015,06,12,01,40,12.10
2015,06,12,01,41,12.00
2015,06,12,01,42,12.00
2015,06,12,01,43,12.00
2015,06,12,01,44,11.90
2015,06,12,01,45,11.90
2015,06,12,01,46,11.90
2015,06,12,01,47,11.80
2015,06,12,01,48,11.80
2015,06,12,01,49,11.80
2015,06,12,01,50,11.80
2015,06,12,01,51,11.80
2015,06,12,01,52,11.80
2015,06,12,01,53,11.80
2015,06,12,01,54,11.70
2015,06,12,01,55,11.70
2015,06,12,01,56,11.70
2015,06,12,01,57,11.70
2015,06,12,01,58,11.70
2015,06,12,01,59,11.70
2015,06,12,02,00,11.60
2015,06,12,02,01,11.60
2015,06,12,02,02,11.60
2015,06,12,02,03,11.60
2015,06,12,02,04,11.60
2015,06,12,02,05,11.60
2015,06,12,02,06,11.50
2015,06,12,02,07,11.50
2015,06,12,02,08,11.50
2015,06,12,02,09,11.50
2015,06,12,02,10,11.40
2015,06,12,02,11,11.40
2015,06,12,02,12,11.40
2015,06,12,02,13,11.30
2015,06,12,02,14,11.30
2015,06,12,02,15,11.20
2015,06,12,02,16,11.20
2015,06,12,02,17,11.10
2015,06,12,02,18,11.10
2015,06,12,02,19,11.00
2015,06,12,02,20,10.90
2015,06,12,02,21,10.90
2015,06,12,02,22,10.90
2015,06,12,02,23,10.80
2015,06,12,02,24,10.80
2015,06,12,02,25,10.80
2015,06,12,02,26,10.80
2015,06,12,02,27,10.80
2015,06,12,02,28,10.80
2015,06,12,02,29,10.80
2015,06,12,02,30,10.70
2015,06,12,02,31,10.70
2015,06,12,02,32,10.70
2015,06,12,02,33,10.70
2015,06,12,02,34,10.60
2015,06,12,02,35,10.60
2015,06,12,02,36,10.50
2015,06,12,02,37,10.50
2015,06,12,02,38,10.40
2015,06,12,02,39,10.40
2015,06,12,02,40,10.40
2015,06,12,02,41,10.30
2015,06,12,02,42,10.30
2015,06,12,02,43,10.30
2015,06,12,02,44,10.30
2015,06,12,02,45,10.30
2015,06,12,02,46,10.30
2015,06,12,02,47,10.30
2015,06,12,02,48,10.20
2015,06,12,02,49,10.20
2015,06,12,02,50,10.20
2015,06,12,02,51,10.20
2015,06,12,02,52,10.20
2015,06,12,02,53,10.20
2015,06,12,02,54,10.20
2015,06,12,02,55,10.20
2015,06,12,02,56,10.10
2015,06,12,02,57,10.10
2015,06,12,02,58,10.10
2015,06,12,02,59,10.10
2015,06,12,03,00,10.10
2015,06,12,03,01,10.00
2015,06,12,03,02,10.00
2015,06,12,03,03,9.90
2015,06,12,03,04,9.90
2015,06,12,03,05,9.80
2015,06,12,03,06,9.80
2015,06,12,03,07,9.80
2015,06,12,03,08,9.80
2015,06,12,03,09,9.70
2015,06,12,03,10,9.70
2015,06,12,03,11,9.70
2015,06,12,03,12,9.70
2015,06,12,03,13,9.70
2015,06,12,03,14,9.60
2015,06,12,03,15,9.50
2015,06,12,03,16,9.50
2015,06,12,03,17,9.40
2015,06,12,03,18,9.30
2015,06,12,03,19,9.20
2015,06,12,03,20,9.20
2015,06,12,03,21,9.10
2015,06,12,03,22,9.10
2015,06,12,03,23,9.10
2015,06,12,03,24,9.10
2015,06,12,03,25,9.00
2015,06,12,03,26,9.00
2015,06,12,03,27,9.00
2015,06,12,03,28,8.90
2015,06,12,03,29,8.90
2015,06,12,03,30,8.90
2015,06,12,03,31,8.90
2015,06,12,03,32,8.90
2015,06,12,03,33,8.80
2015,06,12,03,34,8.80
2015,06,12,03,35,8.80
2015,06,12,03,36,8.80
2015,06,12,03,37,8.80
2015,06,12,03,38,8.80
2015,06,12,03,39,8.80
2015,06,12,03,40,8.70
2015,06,12,03,41,8.70
2015,06,12,03,42,8.70
2015,06,12,03,43,8.70
2015,06,12,03,44,8.60
2015,06,12,03,45,8.60
2015,06,12,03,46,8.60
2015,06,12,03,47,8.50
2015,06,12,03,48,8.50
2015,06,12,03,49,8.50
2015,06,12,03,50,8.40
2015,06,12,03,51,8.40
2015,06,12,03,52,8.30
2015,06,12,03,53,8.20
2015,06,12,03,54,8.20
2015,06,12,03,55,8.20
2015,06,12,03,56,8.10
2015,06,12,03,57,8.10
2015,06,12,03,58,8.10
2015,06,12,03,59,8.10
2015,06,12,04,00,8.20
2015,06,12,04,01,8.20
2015,06,12,04,02,8.20
2015,06,12,04,03,8.20
2015,06,12,04,04,8.20
2015,06,12,04,05,8.20
2015,06,12,04,06,8.30
2015,06,12,04,07,8.20
2015,06,12,04,08,8.30
2015,06,12,04,09,8.30
2015,06,12,04,10,8.30
2015,06,12,04,11,8.30
2015,06,12,04,12,8.40
2015,06,12,04,13,8.40
2015,06,12,04,14,8.50
2015,06,12,04,15,8.60
2015,06,12,04,16,8.80
2015,06,12,04,17,8.90
2015,06,12,04,18,9.00
2015,06,12,04,19,9.10
2015,06,12,04,20,9.10
2015,06,12,04,21,9.20
2015,06,12,04,22,9.20
2015,06,12,04,23,9.20
2015,06,12,04,24,9.20
2015,06,12,04,25,9.20
2015,06,12,04,26,9.20
2015,06,12,04,27,9.30
2015,06,12,04,28,9.30
2015,06,12,04,29,9.40
2015,06,12,04,30,9.40
2015,06,12,04,31,9.50
2015,06,12,04,32,9.50
2015,06,12,04,33,9.50
2015,06,12,04,34,9.50
2015,06,12,04,35,9.50
2015,06,12,04,36,9.50
2015,06,12,04,37,9.50
2015,06,12,04,38,9.40
2015,06,12,04,39,9.40
2015,06,12,04,40,9.40
2015,06,12,04,41,9.30
2015,06,12,04,42,9.20
2015,06,12,04,43,9.20
2015,06,12,04,44,9.10
2015,06,12,04,45,9.00
2015,06,12,04,46,9.00
2015,06,12,04,47,8.90
2015,06,12,04,48,8.80
2015,06,12,04,49,8.70
2015,06,12,04,50,8.60
2015,06,12,04,51,8.50
2015,06,12,04,52,8.40
2015,06,12,04,53,8.30
2015,06,12,04,54,8.30
2015,06,12,04,55,8.20
2015,06,12,04,56,8.20
2015,06,12,04,57,8.10
2015,06,12,04,58,8.10
2015,06,12,04,59,8.10
2015,06,12,05,00,8.10
2015,06,12,05,01,8.10
2015,06,12,05,02,8.20
2015,06,12,05,03,8.20
2015,06,12,05,04,8.20
2015,06,12,05,05,8.30
2015,06,12,05,06,8.30
2015,06,12,05,07,8.30
2015,06,12,05,08,8.40
2015,06,12,05,09,8.40
2015,06,12,05,10,8.40
2015,06,12,05,11,8.50
2015,06,12,05,12,8.50
2015,06,12,05,13,8.50
2015,06,12,05,14,8.40
2015,06,12,05,15,8.40
2015,06,12,05,16,8.30
2015,06,12,05,17,8.30
2015,06,12,05,18,8.20
2015,06,12,05,19,8.20
2015,06,12,05,20,8.10
2015,06,12,05,21,8.00
2015,06,12,05,22,8.00
2015,06,12,05,23,7.90
2015,06,12,05,24,7.80
2015,06,12,05,25,7.80
2015,06,12,05,26,7.80
2015,06,12,05,27,7.80
2015,06,12,05,28,7.80
2015,06,12,05,29,7.80
2015,06,12,05,30,7.70
2015,06,12,05,31,7.70
2015,06,12,05,32,7.60
2015,06,12,05,33,7.50
2015,06,12,05,34,7.50
2015,06,12,05,35,7.40
2015,06,12,05,36,7.40
2015,06,12,05,37,7.30
2015,06,12,05,38,7.30
2015,06,12,05,39,7.30
2015,06,12,05,40,7.30
2015,06,12,05,41,7.40
2015,06,12,05,42,7.40
2015,06,12,05,43,7.40
2015,06,12,05,44,7.40
2015,06,12,05,45,7.40
2015,06,12,05,46,7.50
2015,06,12,05,47,7.50
2015,06,12,05,48,7.50
2015,06,12,05,49,7.60
2015,06,12,05,50,7.60
2015,06,12,05,51,7.60
2015,06,12,05,52,7.60
2015,06,12,05,53,7.60
2015,06,12,05,54,7.60
2015,06,12,05,55,7.60
2015,06,12,05,56,7.60
2015,06,12,05,57,7.60
2015,06,12,05,58,7.60
2015,06,12,05,59,7.60
2015,06,12,06,00,7.60
2015,06,12,06,01,7.60
2015,06,12,06,02,7.60
2015,06,12,06,03,7.60
2015,06,12,06,04,7.60
2015,06,12,06,05,7.60
2015,06,12,06,06,7.70
2015,06,12,06,07,7.70
2015,06,12,06,08,7.80
2015,06,12,06,09,7.80
2015,06,12,06,10,7.90
2015,06,12,06,11,7.90
2015,06,12,06,12,8.00
2015,06,12,06,13,8.00
2015,06,12,06,14,8.20
2015,06,12,06,15,8.20
2015,06,12,06,16,8.30
2015,06,12,06,17,8.30
2015,06,12,06,18,8.30
2015,06,12,06,19,8.30
2015,06,12,06,20,8.30
2015,06,12,06,21,8.30
2015,06,12,06,22,8.30
2015,06,12,06,23,8.40
2015,06,12,06,24,8.50
2015,06,12,06,25,8.50
2015,06,12,06,26,8.60
2015,06,12,06,27,8.70
2015,06,12,06,28,8.70
2015,06,12,06,29,8.80
2015,06,12,06,30,8.80
2015,06,12,06,31,8.90
2015,06,12,06,32,8.90
2015,06,12,06,33,9.00
2015,06,12,06,34,9.00
2015,06,12,06,35,9.10
2015,06,12,06,36,9.10
2015,06,12,06,37,9.20
2015,06,12,06,38,9.30
2015,06,12,06,39,9.40
2015,06,12,06,40,9.40
2015,06,12,06,41,9.50
2015,06,12,06,42,9.60
2015,06,12,06,43,9.70
2015,06,12,06,44,9.80
2015,06,12,06,45,10.00
2015,06,12,06,46,10.10
2015,06,12,06,47,10.20
2015,06,12,06,48,10.30
2015,06,12,06,49,10.40
2015,06,12,06,50,10.50
2015,06,12,06,51,10.60
2015,06,12,06,52,10.60
2015,06,12,06,53,10.60
2015,06,12,06,54,10.70
2015,06,12,06,55,10.80
2015,06,12,06,56,10.90
2015,06,12,06,57,10.90
2015,06,12,06,58,11.00
2015,06,12,06,59,11.00
2015,06,12,07,00,11.10
2015,06,12,07,01,11.20
2015,06,12,07,02,11.30
2015,06,12,07,03,11.40
2015,06,12,07,04,11.50
2015,06,12,07,05,11.60
2015,06,12,07,06,11.60
2015,06,12,07,07,11.70
2015,06,12,07,08,11.70
2015,06,12,07,09,11.80
2015,06,12,07,10,11.80
2015,06,12,07,11,11.90
2015,06,12,07,12,12.00
2015,06,12,07,13,12.10
2015,06,12,07,14,12.20
2015,06,12,07,15,12.30
2015,06,12,07,16,12.30
2015,06,12,07,17,12.40
2015,06,12,07,18,12.50
2015,06,12,07,19,12.60
2015,06,12,07,20,12.60
2015,06,12,07,21,12.70
2015,06,12,07,22,12.80
2015,06,12,07,23,12.80
2015,06,12,07,24,12.90
2015,06,12,07,25,13.00
2015,06,12,07,26,13.10
2015,06,12,07,27,13.10
2015,06,12,07,28,13.20
2015,06,12,07,29,13.40
2015,06,12,07,30,13.50
2015,06,12,07,31,13.60
2015,06,12,07,32,13.70
2015,06,12,07,33,13.80
2015,06,12,07,34,13.90
2015,06,12,07,35,14.00
2015,06,12,07,36,14.00
2015,06,12,07,37,14.10
2015,06,12,07,38,14.10
2015,06,12,07,39,14.20
2015,06,12,07,40,14.20
2015,06,12,07,41,14.30
2015,06,12,07,42,14.30
2015,06,12,07,43,14.40
2015,06,12,07,44,14.40
2015,06,12,07,45,14.40
2015,06,12,07,46,14.50
2015,06,12,07,47,14.50
2015,06,12,07,48,14.60
2015,06,12,07,49,14.60
2015,06,12,07,50,14.70
2015,06,12,07,51,14.70
2015,06,12,07,52,14.70
2015,06,12,07,53,14.80
2015,06,12,07,54,14.80
2015,06,12,07,55,14.80
2015,06,12,07,56,14.80
2015,06,12,07,57,14.90
2015,06,12,07,58,14.90
2015,06,12,07,59,14.90
2015,06,12,08,00,15.00
2015,06,12,08,01,15.00
2015,06,12,08,02,15.10
2015,06,12,08,03,15.20
2015,06,12,08,04,15.20
2015,06,12,08,05,15.30
2015,06,12,08,06,15.30
2015,06,12,08,07,15.30
2015,06,12,08,08,15.30
2015,06,12,08,09,15.20
2015,06,12,08,10,15.20
2015,06,12,08,11,15.30
2015,06,12,08,12,15.30
2015,06,12,08,13,15.30
2015,06,12,08,14,15.30
2015,06,12,08,15,15.40
2015,06,12,08,16,15.50
2015,06,12,08,17,15.50
2015,06,12,08,18,15.50
2015,06,12,08,19,15.50
2015,06,12,08,20,15.40
2015,06,12,08,21,15.40
2015,06,12,08,22,15.40
2015,06,12,08,23,15.40
2015,06,12,08,24,15.50
2015,06,12,08,25,15.60
2015,06,12,08,26,15.70
2015,06,12,08,27,15.70
2015,06,12,08,28,15.70
2015,06,12,08,29,15.70
2015,06,12,08,30,15.70
2015,06,12,08,31,15.70
2015,06,12,08,32,15.70
2015,06,12,08,33,15.70
2015,06,12,08,34,15.70
2015,06,12,08,35,15.70
2015,06,12,08,36,15.70
2015,06,12,08,37,15.70
2015,06,12,08,38,15.60
2015,06,12,08,39,15.60
2015,06,12,08,40,15.60
2015,06,12,08,41,15.60
2015,06,12,08,42,15.70
2015,06,12,08,43,15.70
2015,06,12,08,44,15.80
2015,06,12,08,45,15.90
2015,06,12,08,46,15.90
2015,06,12,08,47,15.90
2015,06,12,08,48,15.80
2015,06,12,08,49,15.80
2015,06,12,08,50,15.90
2015,06,12,08,51,15.90
2015,06,12,08,52,15.90
2015,06,12,08,53,15.90
2015,06,12,08,54,15.80
2015,06,12,08,55,15.80
2015,06,12,08,56,15.80
2015,06,12,08,57,15.80
2015,06,12,08,58,15.90
2015,06,12,08,59,15.90
2015,06,12,09,00,16.00
2015,06,12,09,01,16.10
2015,06,12,09,02,16.10
2015,06,12,09,03,16.20
2015,06,12,09,04,16.20
2015,06,12,09,05,16.10
2015,06,12,09,06,16.10
2015,06,12,09,07,16.20
2015,06,12,09,08,16.20
2015,06,12,09,09,16.20
2015,06,12,09,10,16.30
2015,06,12,09,11,16.30
2015,06,12,09,12,16.30
2015,06,12,09,13,16.30
2015,06,12,09,14,16.30
2015,06,12,09,15,16.30
2015,06,12,09,16,16.30
2015,06,12,09,17,16.20
2015,06,12,09,18,16.20
2015,06,12,09,19,16.10
2015,06,12,09,20,16.00
2015,06,12,09,21,16.00
2015,06,12,09,22,16.10
2015,06,12,09,23,16.20
2015,06,12,09,24,16.30
2015,06,12,09,25,16.40
2015,06,12,09,26,16.50
2015,06,12,09,27,16.60
2015,06,12,09,28,16.60
2015,06,12,09,29,16.60
2015,06,12,09,30,16.60
2015,06,12,09,31,16.60
2015,06,12,09,32,16.60
2015,06,12,09,33,16.60
2015,06,12,09,34,16.60
2015,06,12,09,35,16.60
2015,06,12,09,36,16.60
2015,06,12,09,37,16.50
2015,06,12,09,38,16.50
2015,06,12,09,39,16.50
2015,06,12,09,40,16.60
2015,06,12,09,41,16.60
2015,06,12,09,42,16.50
2015,06,12,09,43,16.40
2015,06,12,09,44,16.40
2015,06,12,09,45,16.30
2015,06,12,09,46,16.30
2015,06,12,09,47,16.30
2015,06,12,09,48,16.20
2015,06,12,09,49,16.30
2015,06,12,09,50,16.30
2015,06,12,09,51,16.40
2015,06,12,09,52,16.50
2015,06,12,09,53,16.60
2015,06,12,09,54,16.70
2015,06,12,09,55,16.70
2015,06,12,09,56,16.70
2015,06,12,09,57,16.80
2015,06,12,09,58,16.80
2015,06,12,09,59,16.90
2015,06,12,10,00,17.00
2015,06,12,10,01,17.10
2015,06,12,10,02,17.00
2015,06,12,10,03,17.00
2015,06,12,10,04,17.00
2015,06,12,10,05,16.90
2015,06,12,10,06,17.00
2015,06,12,10,07,17.10
2015,06,12,10,08,17.20
2015,06,12,10,09,17.20
2015,06,12,10,10,17.20
2015,06,12,10,11,17.30
2015,06,12,10,12,17.30
2015,06,12,10,13,17.30
2015,06,12,10,14,17.40
2015,06,12,10,15,17.40
2015,06,12,10,16,17.40
2015,06,12,10,17,17.40
2015,06,12,10,18,17.40
2015,06,12,10,19,17.50
2015,06,12,10,20,17.50
2015,06,12,10,21,17.40
2015,06,12,10,22,17.30
2015,06,12,10,23,17.30
2015,06,12,10,24,17.30
2015,06,12,10,25,17.30
2015,06,12,10,26,17.30
2015,06,12,10,27,17.30
2015,06,12,10,28,17.30
2015,06,12,10,29,17.20
2015,06,12,10,30,17.30
2015,06,12,10,31,17.30
2015,06,12,10,32,17.40
2015,06,12,10,33,17.40
2015,06,12,10,34,17.40
2015,06,12,10,35,17.30
2015,06,12,10,36,17.30
2015,06,12,10,37,17.40
2015,06,12,10,38,17.50
2015,06,12,10,39,17.50
2015,06,12,10,40,17.40
2015,06,12,10,41,17.40
2015,06,12,10,42,17.40
2015,06,12,10,43,17.30
2015,06,12,10,44,17.30
2015,06,12,10,45,17.30
2015,06,12,10,46,17.30
2015,06,12,10,47,17.40
2015,06,12,10,48,17.50
2015,06,12,10,49,17.50
2015,06,12,10,50,17.50
2015,06,12,10,51,17.60
2015,06,12,10,52,17.60
2015,06,12,10,53,17.70
2015,06,12,10,54,17.60
2015,06,12,10,55,17.60
2015,06,12,10,56,17.60
2015,06,12,10,57,17.70
2015,06,12,10,58,17.70
2015,06,12,10,59,17.80
2015,06,12,11,00,17.80
2015,06,12,11,01,17.90
2015,06,12,11,02,18.00
2015,06,12,11,03,18.10
2015,06,12,11,04,18.00
2015,06,12,11,05,17.90
2015,06,12,11,06,17.90
2015,06,12,11,07,18.00
2015,06,12,11,08,18.10
2015,06,12,11,09,18.10
2015,06,12,11,10,18.10
2015,06,12,11,11,18.00
2015,06,12,11,12,17.90
2015,06,12,11,13,18.00
2015,06,12,11,14,18.00
2015,06,12,11,15,18.00
2015,06,12,11,16,17.90
2015,06,12,11,17,17.80
2015,06,12,11,18,17.90
2015,06,12,11,19,18.00
2015,06,12,11,20,18.00
2015,06,12,11,21,18.00
2015,06,12,11,22,18.00
2015,06,12,11,23,18.00
2015,06,12,11,24,17.90
2015,06,12,11,25,17.90
2015,06,12,11,26,17.90
2015,06,12,11,27,18.00
2015,06,12,11,28,18.20
2015,06,12,11,29,18.30
2015,06,12,11,30,18.30
2015,06,12,11,31,18.30
2015,06,12,11,32,18.40
2015,06,12,11,33,18.40
2015,06,12,11,34,18.20
2015,06,12,11,35,18.10
2015,06,12,11,36,18.10
2015,06,12,11,37,18.10
2015,06,12,11,38,18.20
2015,06,12,11,39,18.30
2015,06,12,11,40,18.30
2015,06,12,11,41,18.40
2015,06,12,11,42,18.40
2015,06,12,11,43,18.50
2015,06,12,11,44,18.60
2015,06,12,11,45,18.70
2015,06,12,11,46,18.70
2015,06,12,11,47,18.60
2015,06,12,11,48,18.60
2015,06,12,11,49,18.60
2015,06,12,11,50,18.60
2015,06,12,11,51,18.50
2015,06,12,11,52,18.40
2015,06,12,11,53,18.40
2015,06,12,11,54,18.50
2015,06,12,11,55,18.60
2015,06,12,11,56,18.70
2015,06,12,11,57,18.90
2015,06,12,11,58,19.00
2015,06,12,11,59,19.10
2015,06,12,12,00,19.10
2015,06,12,12,01,19.00
2015,06,12,12,02,19.00
2015,06,12,12,03,18.90
2015,06,12,12,04,18.90
2015,06,12,12,05,19.00
2015,06,12,12,06,19.10
2015,06,12,12,07,19.10
2015,06,12,12,08,19.20
2015,06,12,12,09,19.10
2015,06,12,12,10,19.20
2015,06,12,12,11,19.30
2015,06,12,12,12,19.30
2015,06,12,12,13,19.30
2015,06,12,12,14,19.10
2015,06,12,12,15,19.10
2015,06,12,12,16,19.20
2015,06,12,12,17,19.10
2015,06,12,12,18,19.10
2015,06,12,12,19,19.00
2015,06,12,12,20,18.90
2015,06,12,12,21,19.00
2015,06,12,12,22,19.10
2015,06,12,12,23,18.90
2015,06,12,12,24,18.90
2015,06,12,12,25,18.90
2015,06,12,12,26,18.90
2015,06,12,12,27,18.90
2015,06,12,12,28,18.90
2015,06,12,12,29,18.90
2015,06,12,12,30,18.90
2015,06,12,12,31,19.10
2015,06,12,12,32,19.20
2015,06,12,12,33,19.10
2015,06,12,12,34,19.10
2015,06,12,12,35,19.20
2015,06,12,12,36,19.30
2015,06,12,12,37,19.30
2015,06,12,12,38,19.30
2015,06,12,12,39,19.30
2015,06,12,12,40,19.40
2015,06,12,12,41,19.60
2015,06,12,12,42,19.60
2015,06,12,12,43,19.50
2015,06,12,12,44,19.40
2015,06,12,12,45,19.40
2015,06,12,12,46,19.40
2015,06,12,12,47,19.30
2015,06,12,12,48,19.40
2015,06,12,12,49,19.30
2015,06,12,12,50,19.30
2015,06,12,12,51,19.30
2015,06,12,12,52,19.30
2015,06,12,12,53,19.30
2015,06,12,12,54,19.30
2015,06,12,12,55,19.30
2015,06,12,12,56,19.20
2015,06,12,12,57,19.20
2015,06,12,12,58,19.20
2015,06,12,12,59,19.20
2015,06,12,13,00,19.30
2015,06,12,13,01,19.40
2015,06,12,13,02,19.50
2015,06,12,13,03,19.60
2015,06,12,13,04,19.60
2015,06,12,13,05,19.40
2015,06,12,13,06,19.20
2015,06,12,13,07,19.20
2015,06,12,13,08,19.10
2015,06,12,13,09,19.20
2015,06,12,13,10,19.20
2015,06,12,13,11,19.30
2015,06,12,13,12,19.30
2015,06,12,13,13,19.20
2015,06,12,13,14,19.20
2015,06,12,13,15,19.20
2015,06,12,13,16,19.20
2015,06,12,13,17,19.20
2015,06,12,13,18,19.30
2015,06,12,13,19,19.40
2015,06,12,13,20,19.50
2015,06,12,13,21,19.60
2015,06,12,13,22,19.50
2015,06,12,13,23,19.40
2015,06,12,13,24,19.40
2015,06,12,13,25,19.30
2015,06,12,13,26,19.30
2015,06,12,13,27,19.20
2015,06,12,13,28,19.20
2015,06,12,13,29,19.20
2015,06,12,13,30,19.30
2015,06,12,13,31,19.40
2015,06,12,13,32,19.40
2015,06,12,13,33,19.40
2015,06,12,13,34,19.30
2015,06,12,13,35,19.20
2015,06,12,13,36,19.30
2015,06,12,13,37,19.30
2015,06,12,13,38,19.40
2015,06,12,13,39,19.40
2015,06,12,13,40,19.40
2015,06,12,13,41,19.40
2015,06,12,13,42,19.50
2015,06,12,13,43,19.60
2015,06,12,13,44,19.50
2015,06,12,13,45,19.40
2015,06,12,13,46,19.40
2015,06,12,13,47,19.40
2015,06,12,13,48,19.40
2015,06,12,13,49,19.40
2015,06,12,13,50,19.30
2015,06,12,13,51,19.20
2015,06,12,13,52,19.20
2015,06,12,13,53,19.30
2015,06,12,13,54,19.20
2015,06,12,13,55,19.10
2015,06,12,13,56,19.10
2015,06,12,13,57,19.10
2015,06,12,13,58,19.20
2015,06,12,13,59,19.20
2015,06,12,14,00,19.30
2015,06,12,14,01,19.30
2015,06,12,14,02,19.30
2015,06,12,14,03,19.30
2015,06,12,14,04,19.40
2015,06,12,14,05,19.40
2015,06,12,14,06,19.40
2015,06,12,14,07,19.40
2015,06,12,14,08,19.40
2015,06,12,14,09,19.40
2015,06,12,14,10,19.40
2015,06,12,14,11,19.40
2015,06,12,14,12,19.40
2015,06,12,14,13,19.40
2015,06,12,14,14,19.40
2015,06,12,14,15,19.50
2015,06,12,14,16,19.50
2015,06,12,14,17,19.50
2015,06,12,14,18,19.60
2015,06,12,14,19,19.50
2015,06,12,14,20,19.50
2015,06,12,14,21,19.50
2015,06,12,14,22,19.60
2015,06,12,14,23,19.60
2015,06,12,14,24,19.60
2015,06,12,14,25,19.60
2015,06,12,14,26,19.60
2015,06,12,14,27,19.60
2015,06,12,14,28,19.50
2015,06,12,14,29,19.40
2015,06,12,14,30,19.50
2015,06,12,14,31,19.70
2015,06,12,14,32,19.70
2015,06,12,14,33,19.70
2015,06,12,14,34,19.70
2015,06,12,14,35,19.70
2015,06,12,14,36,19.70
2015,06,12,14,37,19.60
2015,06,12,14,38,19.50
2015,06,12,14,39,19.50
2015,06,12,14,40,19.50
2015,06,12,14,41,19.50
2015,06,12,14,42,19.40
2015,06,12,14,43,19.30
2015,06,12,14,44,19.40
2015,06,12,14,45,19.40
2015,06,12,14,46,19.30
2015,06,12,14,47,19.30
2015,06,12,14,48,19.20
2015,06,12,14,49,19.10
2015,06,12,14,50,19.10
2015,06,12,14,51,19.20
2015,06,12,14,52,19.20
2015,06,12,14,53,19.30
2015,06,12,14,54,19.40
2015,06,12,14,55,19.50
2015,06,12,14,56,19.60
2015,06,12,14,57,19.60
2015,06,12,14,58,19.60
2015,06,12,14,59,19.70
2015,06,12,15,00,19.80
2015,06,12,15,01,19.90
2015,06,12,15,02,20.00
2015,06,12,15,03,19.90
2015,06,12,15,04,19.90
2015,06,12,15,05,20.00
2015,06,12,15,06,20.10
2015,06,12,15,07,20.20
2015,06,12,15,08,20.20
2015,06,12,15,09,20.20
2015,06,12,15,10,20.20
2015,06,12,15,11,20.30
2015,06,12,15,12,20.30
2015,06,12,15,13,20.30
2015,06,12,15,14,20.30
2015,06,12,15,15,20.20
2015,06,12,15,16,20.00
2015,06,12,15,17,19.80
2015,06,12,15,18,19.80
2015,06,12,15,19,19.80
2015,06,12,15,20,19.80
2015,06,12,15,21,19.80
2015,06,12,15,22,19.80
2015,06,12,15,23,19.70
2015,06,12,15,24,19.70
2015,06,12,15,25,19.70
2015,06,12,15,26,19.70
2015,06,12,15,27,19.80
2015,06,12,15,28,19.80
2015,06,12,15,29,19.70
2015,06,12,15,30,19.70
2015,06,12,15,31,19.70
2015,06,12,15,32,19.70
2015,06,12,15,33,19.70
2015,06,12,15,34,19.70
2015,06,12,15,35,19.60
2015,06,12,15,36,19.60
2015,06,12,15,37,19.70
2015,06,12,15,38,19.70
2015,06,12,15,39,19.70
2015,06,12,15,40,19.70
2015,06,12,15,41,19.70
2015,06,12,15,42,19.70
2015,06,12,15,43,19.70
2015,06,12,15,44,19.80
2015,06,12,15,45,19.90
2015,06,12,15,46,19.80
2015,06,12,15,47,19.80
2015,06,12,15,48,19.80
2015,06,12,15,49,19.90
2015,06,12,15,50,19.90
2015,06,12,15,51,19.90
2015,06,12,15,52,20.00
2015,06,12,15,53,20.00
2015,06,12,15,54,20.00
2015,06,12,15,55,20.10
2015,06,12,15,56,20.20
2015,06,12,15,57,20.20
2015,06,12,15,58,20.10
2015,06,12,15,59,20.10
2015,06,12,16,00,20.10
2015,06,12,16,01,19.90
2015,06,12,16,02,19.90
2015,06,12,16,03,20.00
2015,06,12,16,04,20.00
2015,06,12,16,05,20.00
2015,06,12,16,06,20.00
2015,06,12,16,07,20.00
2015,06,12,16,08,20.00
2015,06,12,16,09,20.00
2015,06,12,16,10,19.90
2015,06,12,16,11,19.90
2015,06,12,16,12,19.80
2015,06,12,16,13,19.80
2015,06,12,16,14,19.80
2015,06,12,16,15,19.80
2015,06,12,16,16,19.80
2015,06,12,16,17,19.80
2015,06,12,16,18,19.80
2015,06,12,16,19,19.80
2015,06,12,16,20,19.90
2015,06,12,16,21,20.00
2015,06,12,16,22,20.10
2015,06,12,16,23,20.20
2015,06,12,16,24,20.20
2015,06,12,16,25,20.30
2015,06,12,16,26,20.30
2015,06,12,16,27,20.30
2015,06,12,16,28,20.20
2015,06,12,16,29,20.10
2015,06,12,16,30,20.10
2015,06,12,16,31,20.10
2015,06,12,16,32,20.30
2015,06,12,16,33,20.40
2015,06,12,16,34,20.50
2015,06,12,16,35,20.60
2015,06,12,16,36,20.60
2015,06,12,16,37,20.70
2015,06,12,16,38,20.70
2015,06,12,16,39,20.60
2015,06,12,16,40,20.60
2015,06,12,16,41,20.40
2015,06,12,16,42,20.40
2015,06,12,16,43,20.30
2015,06,12,16,44,20.30
2015,06,12,16,45,20.20
2015,06,12,16,46,20.10
2015,06,12,16,47,20.10
2015,06,12,16,48,20.10
2015,06,12,16,49,20.00
2015,06,12,16,50,20.00
2015,06,12,16,51,20.00
2015,06,12,16,52,20.10
2015,06,12,16,53,20.10
2015,06,12,16,54,20.10
2015,06,12,16,55,20.10
2015,06,12,16,56,20.10
2015,06,12,16,57,20.10
2015,06,12,16,58,20.10
2015,06,12,16,59,20.20
2015,06,12,17,00,20.20
2015,06,12,17,01,20.20
2015,06,12,17,02,20.20
2015,06,12,17,03,20.30
2015,06,12,17,04,20.30
2015,06,12,17,05,20.40
2015,06,12,17,06,20.40
2015,06,12,17,07,20.50
2015,06,12,17,08,20.40
2015,06,12,17,09,20.50
2015,06,12,17,10,20.60
2015,06,12,17,11,20.60
2015,06,12,17,12,20.60
2015,06,12,17,13,20.50
2015,06,12,17,14,20.40
2015,06,12,17,15,20.30
2015,06,12,17,16,20.20
2015,06,12,17,17,20.20
2015,06,12,17,18,20.30
2015,06,12,17,19,20.40
2015,06,12,17,20,20.50
2015,06,12,17,21,20.60
2015,06,12,17,22,20.70
2015,06,12,17,23,20.70
2015,06,12,17,24,20.60
2015,06,12,17,25,20.50
2015,06,12,17,26,20.50
2015,06,12,17,27,20.50
2015,06,12,17,28,20.40
2015,06,12,17,29,20.40